sat.trackr.live / text

‹ back to catalog

STARLINK-33547

NORAD 62283 · 2024-237S

PAYLOAD ACTIVE UNKNOWN

§ Identity

Operator
Country
US
Launch date
2024-12-08
Launch site
AFETR
Launch vehicle
Mass (kg)
RCS (m²)

Purposes: comms

External: N2YO · Heavens-Above · Gunter

§ Orbital elements

Epoch: 2026-05-24T23:12:23.274720Z

Period
94.27 min
Inclination
43.0007°
Eccentricity
0.0001367
Mean motion
15.27590219 rev/d
Perigee alt
482.1 km
Apogee alt
484.0 km
Semi-major
6,861.2 km
B*
4.6866e-4
RAAN
134.6779°
Arg perigee
302.0851°
Mean anomaly
57.9868°
Rev number
8,298

§ Raw data

STARLINK-335471 62283U 24237S   26144.96693605  .00012660  00000+0  46866-3 0  99972 62283  43.0007 134.6779 0001367 302.0851  57.9868 15.27590219 82981

JSON: /api/v1/satellites/62283 · /tle

For live sub-satellite position, see the globe view (requires WebGL).

§ Visibility from observer

Set your observer location to see the next 7 days of passes ≥ 10°. The values pass through the URL so the page stays shareable.

No JS? Fill the form by hand. The geolocation button needs JavaScript.